TimeMST,TemperatureF,Dew PointF,Humidity,Sea Level PressureIn,VisibilityMPH,Wind Direction,Wind SpeedMPH,Gust SpeedMPH,PrecipitationIn,Events,Conditions,WindDirDegrees,DateUTC
12:53 AM,37.9,30.0,73,29.95,10.0,SW,8.1,-,N/A,,Clear,220,2013-02-05 07:53:00
1:53 AM,41.0,32.0,70,29.93,10.0,West,8.1,-,N/A,,Clear,280,2013-02-05 08:53:00
2:53 AM,39.0,30.9,73,29.93,10.0,West,4.6,-,N/A,,Clear,270,2013-02-05 09:53:00
3:53 AM,37.0,30.0,76,29.94,10.0,Calm,Calm,-,N/A,,Clear,0,2013-02-05 10:53:00
4:53 AM,33.1,28.0,82,29.96,10.0,SSW,3.5,-,N/A,,Clear,200,2013-02-05 11:53:00
5:53 AM,34.0,28.0,79,29.97,10.0,NNW,4.6,-,N/A,,Clear,330,2013-02-05 12:53:00
6:53 AM,32.0,27.0,82,30.00,10.0,NW,5.8,-,N/A,,Clear,320,2013-02-05 13:53:00
7:53 AM,37.9,28.9,70,30.00,10.0,Calm,Calm,-,N/A,,Clear,0,2013-02-05 14:53:00
8:53 AM,46.0,30.9,56,30.01,10.0,Calm,Calm,-,N/A,,Clear,0,2013-02-05 15:53:00
9:53 AM,52.0,30.0,43,30.01,10.0,East,3.5,-,N/A,,Clear,80,2013-02-05 16:53:00
10:53 AM,57.0,28.0,33,30.00,10.0,East,3.5,-,N/A,,Clear,90,2013-02-05 17:53:00
11:53 AM,60.1,28.9,31,29.98,10.0,South,3.5,-,N/A,,Clear,190,2013-02-05 18:53:00
12:53 PM,63.0,30.9,30,29.93,10.0,Variable,3.5,-,N/A,,Clear,0,2013-02-05 19:53:00
1:53 PM,64.0,30.0,28,29.88,10.0,Calm,Calm,-,N/A,,Clear,0,2013-02-05 20:53:00
2:53 PM,64.9,30.0,27,29.87,10.0,Variable,3.5,-,N/A,,Clear,0,2013-02-05 21:53:00
3:53 PM,64.9,28.9,26,29.87,10.0,SW,5.8,-,N/A,,Clear,220,2013-02-05 22:53:00
4:53 PM,64.9,28.9,26,29.87,10.0,West,6.9,-,N/A,,Clear,270,2013-02-05 23:53:00
5:53 PM,61.0,28.0,29,29.89,10.0,West,5.8,-,N/A,,Clear,260,2013-02-06 00:53:00
6:53 PM,55.0,28.0,35,29.92,10.0,West,4.6,-,N/A,,Clear,260,2013-02-06 01:53:00
7:53 PM,51.1,28.0,41,29.92,10.0,WNW,5.8,-,N/A,,Clear,290,2013-02-06 02:53:00
8:53 PM,48.0,27.0,44,29.93,10.0,WNW,6.9,-,N/A,,Clear,300,2013-02-06 03:53:00
9:53 PM,46.0,28.0,50,29.92,10.0,WNW,6.9,-,N/A,,Clear,290,2013-02-06 04:53:00
10:53 PM,42.1,26.1,53,29.91,10.0,Calm,Calm,-,N/A,,Clear,0,2013-02-06 05:53:00